This is the latest recevied weather packets stored in our database for station/object N5PRN. If no packets are shown the sender has not sent any weather packets the latest 10 day(s).
| Time | Temp. | Humidity | Pressure | Rain* | Wind** | Luminosity | Snow |
|---|---|---|---|---|---|---|---|
| 1778008022 | 25° C | 85% | 1009.6 hPa | 0 mm | - | 126 W/m² | - |
| 1778007722 | 25° C | 84% | 1009.8 hPa | 0 mm | - | 133 W/m² | - |
| 1778007419 | 25° C | 83% | 1009.7 hPa | 0 mm | - | 271 W/m² | - |
| 1778007115 | 25° C | 84% | 1009.6 hPa | 0 mm | - | 376 W/m² | - |
| 1778006811 | 25.56° C | 83% | 1010 hPa | 0 mm | - | 319 W/m² | - |
| 1778006509 | 25.56° C | 84% | 1009.5 hPa | 0 mm | - | 419 W/m² | - |
| 1778006205 | 25° C | 84% | 1010 hPa | 0 mm | - | 350 W/m² | - |
| 1778005903 | 25° C | 84% | 1010 hPa | 0 mm | - | 305 W/m² | - |
| 1778005599 | 25° C | 83% | 1009.9 hPa | 0 mm | - | 350 W/m² | - |
| 1778005297 | 25° C | 84% | 1009.8 hPa | 0 mm | - | 367 W/m² | - |
| 1778004992 | 25° C | 85% | 1010 hPa | 0 mm | - | 216 W/m² | - |
| 1778004690 | 25° C | 84% | 1010.2 hPa | 0 mm | - | 203 W/m² | - |
| 1778004386 | 25° C | 83% | 1010.2 hPa | 0 mm | - | 222 W/m² | - |
| 1778004084 | 25° C | 84% | 1009.9 hPa | 0 mm | - | 376 W/m² | - |
| 1778003779 | 24.44° C | 85% | 1009.9 hPa | 0 mm | - | 233 W/m² | - |
| 1778003476 | 25° C | 83% | 1010.1 hPa | 0 mm | - | 225 W/m² | - |
| 1778003167 | 25° C | 84% | 1010.4 hPa | 0 mm | - | 248 W/m² | - |
| 1778002863 | 25° C | 83% | 1010.3 hPa | 0 mm | - | 271 W/m² | - |
| 1778002560 | 25° C | 84% | 1010.3 hPa | 0 mm | - | 234 W/m² | - |
| 1778002256 | 24.44° C | 85% | 1010.2 hPa | 0 mm | - | 380 W/m² | - |
| 1778001954 | 23.89° C | 85% | 1010.2 hPa | 0 mm | - | 357 W/m² | - |
| 1778001650 | 23.89° C | 86% | 1010.5 hPa | 0 mm | - | 131 W/m² | - |
| 1778001346 | 23.89° C | 86% | 1010.5 hPa | 0 mm | - | 101 W/m² | - |
| 1778001043 | 23.89° C | 86% | 1010.5 hPa | 0 mm | - | 84 W/m² | - |
| 1778000739 | 23.89° C | 85% | 1010.4 hPa | 0 mm | - | 92 W/m² | - |
* Rain latest hour (hover to see other rain measurements)
** Current wind speed in m/s (hover to see current wind gust speed)